Regional Weather Roundup
Issued by NWS

Home | Current Version | Previous Version | Graphics & Text | Print | Product List | Glossary On
Versions: 1 2 3 4 5 6 7 8 9 10 11 12 13 14 15 16 17 18 19 20 21 22 23 24 25 26 27 28 29 30 31 32 33 34 35 36 37 38 39 40 41 42 43 44 45 46 47 48 49 50
000
ASUS43 KDMX 290406
RWRIA

WEATHER ROUNDUP FOR IOWA
NATIONAL WEATHER SERVICE DES MOINES IA
1100 PM CDT SUN MAY 28 2017

NOTE: "FAIR" INDICATES FEW OR NO CLOUDS BELOW 12,000 FEET WITH NO
SIGNIFICANT WEATHER AND/OR OBSTRUCTIONS TO VISIBILITY.

* - THESE STATIONS ARE NOT NWS STATIONS...THUS NOT UNDER NWS
QUALITY CONTROL.  THEY ALSO DO NOT REPORT WEATHER SUCH
AS PRECIPITATION OR FOG.

IAZ001>003-012>014-020>022-031>034-043>046-290500-
   NORTHWEST IOWA

CITY           SKY/WX    TMP DP  RH WIND       PRES   REMARKS
CARROLL *      MOCLDY    61  46  59 W6        29.85F
CHEROKEE *     MOCLDY    55  49  80 CALM      29.87F
DENISON *      PTCLDY    63  43  48 W3        29.88F
LE MARS *      MOCLDY    59  46  63 NW3       29.89S
ORANGE CITY *  PTCLDY    57  46  67 CALM      29.87F
SHELDON *      PTCLDY    54  46  76 CALM      29.87R
SIOUX CITY     CLOUDY    66  43  43 N5        29.87R
SPENCER        PTCLDY    54  50  86 CALM      29.85F
STORM LAKE *   MOCLDY    57  46  67 N6        29.88S
$$

IAZ055>058-069>071-079>083-090>094-290500-
   SOUTHWEST IOWA

CITY           SKY/WX    TMP DP  RH WIND       PRES   REMARKS
ATLANTIC *     CLEAR     57  50  77 S5        29.88F
AUDUBON *      CLEAR     59  46  63 W6        29.88F
CLARINDA *     PTCLDY    57  50  77 CALM      29.92F
COUNCIL BLFS * CLEAR     66  41  39 SW5       29.89F
CRESTON *      CLEAR     63  45  51 W6        29.90F
HARLAN  *      CLEAR     59  46  63 W8        29.91F
LAMONI         CLEAR     60  46  59 W6        29.89S
RED OAK *      CLEAR     59  50  72 CALM      29.90S
SHENANDOAH *   CLEAR     59  52  77 SW3       29.91S
$$

IAZ047>049-059>061-072>074-084-290500-
   CENTRAL IOWA

CITY           SKY/WX    TMP DP  RH WIND       PRES   REMARKS
AMES           CLEAR     59  48  67 W8        29.83S
ANKENY *       CLEAR     63  45  51 W7        29.85F
BOONE *        CLEAR     61 N/A N/A W6        29.84S
CHARITON *     CLEAR     61  46  59 W8        29.87S
DES MOINES     CLEAR     65  43  44 CALM      29.85S
GRINNELL*      CLEAR     62  45  53 W3        29.85S
KNOXVILLE *    CLEAR     63  45  51 W7        29.84F
MARSHALLTOWN   CLEAR     61  46  57 W5        29.82R
NEWTON *       CLEAR     63  45  51 W6        29.83F
PELLA *        CLEAR     64  46  52 W3        29.85F
PERRY *          N/A     58  47  65 W9        29.86S
$$

IAZ004>006-015-016-023>025-035-036-290500-
   NORTH CENTRAL IOWA

CITY           SKY/WX    TMP DP  RH WIND       PRES   REMARKS
ALGONA *       CLOUDY    61  45  55 W8        29.84F
CLARION *      CLOUDY    63  43  48 NW16      29.84F
ESTHERVILLE    MOCLDY    54  50  86 W8        29.83F
FORT DODGE *   PTCLDY    61  43  51 N6        29.86F
MASON CITY     CLOUDY    64  39  39 NW20      29.83R
FOREST CITY *  CLOUDY    63  32  31 NW10      29.82F
WEBSTER CITY * CLOUDY    61  45  55 N12G22    29.83R
IOWA FALLS *     N/A     59  45  59 W9        29.85R
$$

IAZ007>011-017>019-026>030-037>042-050>054-066-290500-
   NORTHEAST IOWA

CITY           SKY/WX    TMP DP  RH WIND       PRES   REMARKS
CEDAR RAPIDS   CLEAR     58  48  69 W10       29.80S
CHARLES CITY * PTCLDY    64  37  36 W16       29.80S
CLINTON *      CLOUDY    63  55  75 W7        29.79R
DECORAH *      CLEAR     61  43  51 VRB5      29.75F
DUBUQUE        CLEAR     57  51  80 SW3       29.78S
MONTICELLO *   CLEAR     59  52  77 CALM      29.78F
OELWEIN *      CLEAR     59  45  58 W9        29.80R
WATERLOO       PTCLDY    61  42  49 W7        29.80R
$$

IAZ064-065-067-068-078-290500-
   EAST CENTRAL IOWA

CITY           SKY/WX    TMP DP  RH WIND       PRES   REMARKS
DAVENPORT      MOCLDY    65  52  62 W8        29.79R
IOWA CITY      CLEAR     64  48  56 W6        29.81S
MT. PLEASANT * PTCLDY    66  48  51 W7        29.82F
MUSCATINE *    PTCLDY    64  52  63 W8        29.80S
QUAD CITIES    MOCLDY    65  51  60 W3        29.78R
$$

IAZ062-063-075>077-085>089-095>099-290500-
   SOUTHEAST IOWA

CITY           SKY/WX    TMP DP  RH WIND       PRES   REMARKS
BURLINGTON     MOCLDY    67  51  56 W7        29.81S
FAIRFIELD *    CLEAR     64  48  55 W9        29.83S
FORT MADISON * PTCLDY    68  50  52 W3        29.83F
KEOKUK *       PTCLDY    66  50  55 W7        29.82F
OSKALOOSA *      N/A     62  45  54 W8        29.85S
CENTERVILLE *    N/A     59  50  72 CALM      29.88S
OTTUMWA        CLEAR     61  50  67 W7        29.84R
$$

ABBREVIATIONS USED IN REMARKS
   TC - TEMPERATURES IN CELSIUS
  WCI - WIND CHILL INDEX
   HX - HEAT INDEX
  VSB - VISIBILITY
$$





USA.gov is the U.S. government's official web portal to all federal, state and local government web resources and services.